Location: Montclair
(37.8322°N, 122.2092°W)
Time: 12:34:51
(UTC+00:00)

Cosmos 1862 - Pass Details

Date: 08 September 2024
Orbit: 499 x 517 km, 82.5° (Epoch: 12 October)

Event Time Altitude Azimuth Distance (km) Brightness Sun altitude
Rises 12:50:09 0° 340° (NNW) 2,602 6.7 -11.5°
Reaches altitude 10° 12:52:29 10° 329° (NNW) 1,711 5.7 -11.0°
Maximum altitude 12:55:42 28° 269° (W) 970 4.0 -10.4°
Drops below altitude 10° 12:58:53 10° 210° (SSW) 1,697 5.4 -9.8°
Sets 13:01:11 0° 198° (SSW) 2,576 6.4 -9.4°
